This is the latest recevied weather packets stored in our database for station/object IU1OLT-7. If no packets are shown the sender has not sent any weather packets the latest 10 day(s).
| Time | Temp. | Humidity | Pressure | Rain* | Wind** | Luminosity | Snow |
|---|---|---|---|---|---|---|---|
| 1777633641 | 17.22° C | 32% | 1025.6 hPa | - | - | - | - |
| 1777632747 | 17.22° C | 32% | 1026.1 hPa | - | - | - | - |
| 1777631841 | 16.67° C | 32% | 1026 hPa | - | - | - | - |
| 1777630941 | 16.67° C | 32% | 1026 hPa | - | - | - | - |
| 1777630041 | 16.67° C | 31% | 1025.9 hPa | - | - | - | - |
| 1777629139 | 16.67° C | 32% | 1026 hPa | - | - | - | - |
| 1777628239 | 16.67° C | 33% | 1026.2 hPa | - | - | - | - |
| 1777627339 | 15.56° C | 32% | 1026.2 hPa | - | - | - | - |
| 1777626439 | 15° C | 33% | 1025.9 hPa | - | - | - | - |
| 1777625539 | 14.44° C | 32% | 1025.8 hPa | - | - | - | - |
| 1777624639 | 14.44° C | 33% | 1025.7 hPa | - | - | - | - |
| 1777623739 | 13.33° C | 34% | 1025.7 hPa | - | - | - | - |
| 1777622839 | 13.33° C | 32% | 1025.4 hPa | - | - | - | - |
| 1777621938 | 13.33° C | 32% | 1025.5 hPa | - | - | - | - |
| 1777621035 | 12.78° C | 31% | 1025.3 hPa | - | - | - | - |
| 1777620135 | 12.78° C | 32% | 1025.4 hPa | - | - | - | - |
| 1777619235 | 12.78° C | 31% | 1025.5 hPa | - | - | - | - |
| 1777618335 | 11.67° C | 31% | 1025.5 hPa | - | - | - | - |
| 1777617435 | 11.11° C | 32% | 1025.5 hPa | - | - | - | - |
| 1777616535 | 11.67° C | 30% | 1025.4 hPa | - | - | - | - |
| 1777615635 | 11.67° C | 29% | 1025.4 hPa | - | - | - | - |
| 1777614741 | 10° C | 32% | 1025.1 hPa | - | - | - | - |
| 1777613841 | 8.89° C | 32% | 1025 hPa | - | - | - | - |
| 1777612035 | 8.89° C | 33% | 1024.7 hPa | - | - | - | - |
| 1777611135 | 8.89° C | 33% | 1024.9 hPa | - | - | - | - |
* Rain since midnight (hover to see other rain measurements)
** Current wind speed in m/s (hover to see current wind gust speed)